Home   Weather   Stevenson   Past weeks
Flag for USA

Past Weather in Stevenson, Washington, USA — Yesterday and Last 2 Weeks

Now
57 °F

Overcast.


Feels Like: 57 °F
Forecast: 62 / 53 °F
Wind: 3 mph from East

Location: Portland-Troutdale Airport

Current Time: Apr 23, 2019 at 3:14:50 am

Latest Report: Apr 23, 2019 at 1:53 am


Visibility: 10 mi

Pressure: 30.22 "Hg

Humidity: 83%

Dew Point: 52 °F

Location of StevensonLocation

Past Weather in Stevenson — Graph

°F

Stevenson Temperature Yesterday

Maximum temperature yesterday: 67 °F (at 3:53 pm)
Minimum temperature yesterday: 40 °F (at 4:53 am)
Average temperature yesterday: 54 °F

High & Low Weather Summary for the Past Weeks

 TemperatureHumidityPressure
High76 °F (Apr 18, 4:53 pm)97% (Apr 15, 1:53 am)30.46 "Hg (Apr 15, 1:53 am)
Low40 °F (Apr 14, 3:53 am)36% (Apr 22, 3:53 pm)29.70 "Hg (Apr 15, 1:53 pm)
Average52 °F77%30.10 "Hg
* Reported Apr 8 1:53 am — Apr 23 1:53 am, Stevenson. Weather by CustomWeather, © 2019

Note: Actual official high and low records may vary slightly from our data, if they occured in-between our weather recording intervals... More about our weather records

Advertising

Stevenson Weather History for the Previous 24 Hours

Scroll right to see more
 ConditionsComfort  
Time TempWeatherWind HumidityBarometerVisibility
1:53 am
Tue, Apr 23
57 °FOvercast.3 mph83%30.22 "Hg10 mi
12:53 am57 °FOvercast.No wind83%30.22 "Hg10 mi
11:53 pm
Mon, Apr 22
57 °FOvercast.No wind81%30.22 "Hg10 mi
10:53 pm58 °FOvercast.No wind78%30.22 "Hg10 mi
9:53 pm58 °FOvercast.No wind75%30.23 "Hg10 mi
8:53 pm58 °FOvercast.No wind81%30.24 "Hg10 mi
7:53 pm60 °FOvercast.No wind72%30.25 "Hg10 mi
6:53 pm61 °FLight rain. Overcast.No wind65%30.26 "Hg10 mi
5:53 pm64 °FOvercast.12 mph49%30.25 "Hg10 mi
4:53 pm66 °FOvercast.6 mph39%30.25 "Hg10 mi
3:53 pm67 °FOvercast.No wind36%30.25 "Hg10 mi
2:53 pm66 °FOvercast.3 mph45%30.27 "Hg10 mi
1:53 pm64 °FPartly sunny.5 mph50%30.27 "Hg10 mi
12:53 pm64 °FScattered clouds.3 mph50%30.29 "Hg10 mi
11:53 am60 °FOvercast.3 mph58%30.29 "Hg10 mi
10:53 am57 °FSunny.5 mph62%30.30 "Hg10 mi
9:53 am53 °FSunny.5 mph72%30.31 "Hg10 mi
8:53 am48 °FSunny.3 mph83%30.34 "Hg10 mi
7:53 am47 °FSunny.6 mph83%30.33 "Hg10 mi
6:53 am41 °FSunny.5 mph89%30.32 "Hg10 mi
5:53 am41 °FClear.No wind89%30.31 "Hg10 mi
4:53 am40 °FClear.6 mph89%30.29 "Hg10 mi
3:53 am42 °FClear.3 mph89%30.29 "Hg10 mi
Weather by CustomWeather, © 2019

See weather overview